Terrace, British Columbia

8:43 PM PDT on July 27, 2017 (GMT -0700)
Terrace

Weather History for CYXT - September, 2013

Change the Weather History Date:

Friday, September 27, 2013

  Actual Average Record
Temperature  
Mean Temperature 49 °F -  
Max Temperature 53 °F 49 °F 66 °F (2006)
Min Temperature 45 °F 40 °F 37 °F (2005)
Degree Days  
Heating Degree Days 16    
Moisture  
Dew Point 46 °F    
Average Humidity 91    
Maximum Humidity 100    
Minimum Humidity 76    
Precipitation  
Precipitation 0.08 in 0.25 in - ()
Sea Level Pressure  
Sea Level Pressure 29.74 in    
Wind  
Wind Speed 11 mph ()    
Max Wind Speed 21 mph    
Max Gust Speed 31 mph    
Visibility 9.9 miles    
Events Rain    
Averages and records for this station are not official NWS values.
T = Trace of Precipitation, MM = Missing Value Source: Averaged Metar Reports

Daily Weather History Graph

Daily Weather History Graph

Search for Another Location

Airport or City:

Trip Planner

Search our weather history database for the weather conditions in past years. The results will help you decide how hot, cold, wet, or windy it might be!

Date:

Astronomy

Sep. 27, 2013 Rise Set
Actual Time 7:29 AM PDT 7:19 PM PDT
Civil Twilight 6:54 AM PDT 7:54 PM PDT
Nautical Twilight 6:12 AM PDT 8:36 PM PDT
Astronomical Twilight 5:28 AM PDT 9:20 PM PDT
Moon No Moon Rise 3:51 PM PDT (9/27)
Length of Visible Light 13h 00m
Length of Day
11h 49m
Last Quarter, 44% of the Moon is Illuminated
Sep 27
Last Quarter
Oct 4
New
Oct 11
First Quarter
Oct 18
Full
Oct 26
Last Quarter

Hourly Weather History & Observations

Time (PDT) Temp. Windchill Dew Point Humidity Pressure Visibility Wind Dir Wind Speed Gust Speed Precip Events Conditions
12:00 AM 46.4 °F 41.1 °F 46.4 °F 100% 29.88 in 7.0 mi South 11.5 mph - N/A Rain Light Rain Showers
1:00 AM 46.4 °F 42.4 °F 46.4 °F 100% 29.87 in 8.0 mi South 8.1 mph - N/A Rain Light Rain Showers
2:00 AM 46.4 °F 42.4 °F 46.4 °F 100% 29.87 in 8.0 mi SSW 8.1 mph - N/A Rain Light Rain
3:00 AM 48.2 °F - 46.4 °F 93% 29.86 in 8.0 mi South 10.4 mph - N/A Rain Light Rain
4:00 AM 46.4 °F 41.5 °F 46.4 °F 100% 29.84 in 8.0 mi South 10.4 mph - N/A Rain Light Rain
4:43 AM 48.2 °F - 46.4 °F 93% 29.84 in 4.0 mi South 12.7 mph - N/A Rain Light Rain
5:00 AM 47 °F - 46 °F 97% 29.84 in 4 mi South 12.7 mph - - Rain Light Rain Showers
5:00 AM 46.4 °F 41.5 °F 46.4 °F 100% 29.84 in 4.0 mi South 10.4 mph 19.6 mph N/A Rain Light Rain Showers
6:00 AM 46.4 °F 42.4 °F 46.4 °F 100% 29.84 in 4.0 mi SW 8.1 mph - N/A Rain Light Rain Showers
7:00 AM 48.2 °F - 46.4 °F 93% 29.85 in 5.0 mi SW 8.1 mph - N/A Rain Light Rain Showers
8:00 AM 48.2 °F - 46.4 °F 93% 29.84 in 5.0 mi South 11.5 mph - N/A Rain Light Rain Showers
8:46 AM 48.2 °F - 46.4 °F 93% 29.83 in 8.0 mi South 15.0 mph 21.9 mph N/A Rain Light Rain Showers
9:00 AM 48.2 °F - 46.4 °F 93% 29.83 in 10.0 mi South 12.7 mph 19.6 mph N/A   Overcast
10:00 AM 48.2 °F - 46.4 °F 93% 29.82 in 10.0 mi SSW 8.1 mph 18.4 mph N/A   Overcast
11:00 AM 50 °F - 46 °F 82% 29.81 in 10 mi SSW 6.9 mph - -   Partly Cloudy
11:00 AM 50.0 °F - 46.4 °F 87% 29.81 in 10.0 mi South 6.9 mph - N/A   Overcast
12:00 PM 50.0 °F - 44.6 °F 82% 29.79 in 15.0 mi South 18.4 mph - N/A   Overcast
1:00 PM 51.8 °F - 44.6 °F 76% 29.77 in 15.0 mi South 18.4 mph 26.5 mph N/A   Overcast
2:00 PM 51.8 °F - 44.6 °F 76% 29.74 in 15.0 mi South 17.3 mph 31.1 mph N/A   Overcast
3:00 PM 50.0 °F - 44.6 °F 82% 29.72 in 15.0 mi SSE 18.4 mph 26.5 mph N/A   Overcast
4:00 PM 50.0 °F - 44.6 °F 82% 29.70 in 15.0 mi SSE 13.8 mph 24.2 mph N/A   Overcast
5:00 PM 50 °F - 45 °F 76% 29.66 in 19 mi SSE 18.4 mph - -   Overcast
5:00 PM 50.0 °F - 44.6 °F 82% 29.66 in 20.0 mi SSE 18.4 mph 25.3 mph N/A   Overcast
5:44 PM 50.0 °F - 44.6 °F 82% 29.63 in 20.0 mi South 16.1 mph 24.2 mph N/A Rain Light Rain Showers
6:00 PM 48.2 °F - 44.6 °F 87% 29.62 in 15.0 mi South 16.1 mph 25.3 mph N/A Rain Light Rain Showers
7:00 PM 46.4 °F 40.1 °F 46.4 °F 100% 29.59 in 10.0 mi SSE 15.0 mph - N/A Rain Light Rain Showers
8:00 PM 46.4 °F 38.7 °F 44.6 °F 93% 29.56 in 8.0 mi SSE 20.7 mph 26.5 mph N/A Rain Light Rain Showers
9:00 PM 46.4 °F 41.9 °F 44.6 °F 93% 29.53 in 8.0 mi SSE 9.2 mph 18.4 mph N/A Rain Light Rain Showers
10:00 PM 46.4 °F 41.5 °F 44.6 °F 93% 29.49 in 8.0 mi SSE 10.4 mph - N/A Rain Light Rain Showers
11:00 PM 46 °F - 46 °F 97% 29.47 in 6 mi SSE 8.1 mph - - Rain Light Rain
11:00 PM 46.4 °F 41.9 °F 46.4 °F 100% 29.46 in 6.0 mi SSE 9.2 mph - N/A Rain Light Rain